Location: Glencliff
(36.1226°N, 86.7183°W)
Time: 07:48:19
(UTC+00:00)

Cosmos 1633 - Pass Details

Date: 25 August 2019
Orbit: 464 x 484 km, 82.5° (Epoch: 17 October)

Event Time Altitude Azimuth Distance (km) Brightness Sun altitude
Rises 10:28:32 0° 2° (N) 2,539 6.5 -9.4°
Reaches altitude 10° 10:30:46 10° 11° (N) 1,652 5.7 -9.0°
Maximum altitude 10:34:07 36° 80° (E) 763 4.4 -8.3°
Drops below altitude 10° 10:37:26 10° 148° (SSE) 1,629 5.4 -7.7°
Sets 10:39:36 0° 157° (SSE) 2,497 6.2 -7.3°
